EW8705 Weather Reports


Display with metric or nautical units.
time (UTC)temp
F
wind
direction
speed
MPH
gust
MPH
rain 1hr
in
rain 24hr
in
rain mn
in
humidity
%
barometer
mb
20210613120028 79 155 6.0 11.0 0.00 0.00 0.00 64 1008.8
20210613114518 79 155 5.0 12.0 0.00 0.00 0.00 63 1008.8
20210613113006 79 155 6.0 10.0 0.00 0.00 0.00 59 1009.1
20210613111524 79 155 7.0 13.0 0.00 0.00 0.00 59 1009.2
20210613100027 80 155 6.0 11.0 0.00 0.00 0.00 58 1009.4
20210613094534 81 155 6.0 12.0 0.00 0.00 0.00 55 1009.4
20210613093038 81 155 3.0 10.0 0.00 0.00 0.00 57 1009.6
20210613091517 79 155 7.0 13.0 0.00 0.00 0.00 58 1009.7
20210613090034 80 155 5.0 12.0 0.00 0.00 0.00 60 1009.7
20210613084615 80 155 7.0 12.0 0.00 0.00 0.00 57 1009.7
20210613083032 81 155 6.0 10.0 0.00 0.00 0.00 51 1009.6
20210613081513 81 155 5.0 10.0 0.00 0.00 0.00 41 1009.6
20210613080026 81 155 5.0 10.0 0.00 0.00 0.00 43 1009.6
20210613074516 80 155 4.0 9.0 0.00 0.00 0.00 50 1009.7
20210613073009 80 155 6.0 9.0 0.00 0.00 0.00 50 1009.7
20210613071510 81 155 5.0 10.0 0.00 0.00 0.00 50 1009.6
20210613070013 81 155 4.0 8.0 0.00 0.00 0.00 53 1009.5
20210613064513 80 155 2.0 8.0 0.00 0.00 0.00 52 1009.5
20210613063007 80 155 1.0 5.0 0.00 0.00 0.00 52 1009.6
20210613061517 81 155 2.0 5.0 0.00 0.00 0.00 47 1009.5
20210613004638 66 155 0.0 3.0 0.00 0.00 0.00 88 1009.1
20210613003034 67 155 1.0 2.0 0.00 0.00 0.00 88 1009.3
20210613001601 67 155 1.0 2.0 0.00 0.00 0.00 89 1009.4
20210613000036 67 155 2.0 4.0 0.00 0.00 0.00 88 1009.6
20210612234512 68 155 1.0 2.0 0.00 0.00 0.00 87 1009.8
20210612233020 69 155 0.0 0.0 0.00 0.00 0.00 86 1010.0
20210612231508 69 155 0.0 0.0 0.00 0.00 0.00 86 1010.1
20210612230007 69 155 0.0 3.0 0.00 0.00 0.00 87 1010.0
20210612224507 69 155 0.0 2.0 0.00 0.00 0.00 86 1010.2
20210612223003 70 155 0.0 0.0 0.00 0.00 0.00 86 1010.1
20210612220131 71 155 0.0 0.0 0.00 0.00 0.00 85 1010.2
20210612214731 71 155 0.0 0.0 0.00 0.00 0.00 84 1010.1
20210612213121 71 155 0.0 2.0 0.00 0.00 0.00 83 1010.3
20210612211613 72 155 0.0 0.0 0.00 0.00 0.00 84 1010.5
20210612210120 72 155 1.0 3.0 0.00 0.00 0.00 83 1010.4
20210612204644 72 155 0.0 3.0 0.00 0.00 0.00 83 1011.0
20210612203115 72 155 2.0 3.0 0.00 0.00 0.00 83 1010.9
20210612201603 72 155 0.0 0.0 0.00 0.00 0.00 83 1010.8
20210612200155 72 155 1.0 4.0 0.00 0.00 0.00 82 1011.2
20210612194624 73 155 0.0 0.0 0.00 0.00 0.00 82 1010.6
20210612193111 73 155 1.0 3.0 0.00 0.00 0.00 82 1010.9
20210612191622 73 155 0.0 0.0 0.00 0.00 0.00 82 1010.5
20210612190200 73 155 0.0 2.0 0.00 0.00 0.00 81 1010.0
20210612184617 73 155 0.0 3.0 0.00 0.00 0.00 81 1010.4
20210612183120 73 155 0.0 3.0 0.00 0.00 0.00 81 1010.2
20210612181632 73 155 0.0 4.0 0.00 0.00 0.00 81 1010.4
20210612180132 73 155 1.0 5.0 0.00 0.00 0.00 81 1010.6
20210612174546 73 155 0.0 3.0 0.00 0.00 0.00 81 1009.9
20210612173059 73 155 1.0 3.0 0.00 0.00 0.00 81 1010.1
20210612171608 73 155 2.0 6.0 0.00 0.00 0.00 81 1010.5
20210612130128 79 155 4.0 12.0 0.00 0.00 0.00 68 1011.0
20210612124714 78 155 5.0 15.0 0.00 0.00 0.00 70 1011.1
20210612123400 78 155 6.0 16.0 0.00 0.00 0.00 69 1011.1
20210612121718 78 155 7.0 14.0 0.00 0.00 0.00 71 1011.2